[[[{"header":{"parameterUnit":"kt","parameterCategory":2,"dx":1,"dy":1,"la1":30.253999710083008,"la2":30.299108505249023,"lo1":-89.0895004272461,"lo2":-89.04439544677734,"nx":28,"ny":28,"refTime":"2022-09-22T21:00:00:Z","depth":0,"parameterNumber":1,"parameterNumberName":"U-component_of_WINDS"},"data":[-2.884,-2.8889,-2.8837,-2.887,-2.8827,-2.8842,-2.883,-2.881,-2.878,-2.8792,-2.879,-2.8742,-2.8693,-2.8679,-2.8675,-2.8654,-2.8658,-2.8716,-2.8682,-2.8469,-2.8437,-2.8405,-2.8391,-2.8716,-2.8717,-2.8912,-2.8913,-2.8915,-2.8696,-2.8655,-2.8655,-2.862,-2.8621,-2.8534,-2.8499,-2.8506,-2.8521,-2.8484,-2.8478,-2.8484,-2.8482,-2.8411,-2.8401,-2.8426,-2.8385,-2.8427,-2.8427,-2.8421,-2.8191,-2.8175,-2.8461,-2.8461,-2.8461,-2.8461,-2.846,-2.846,-2.842,-2.8451,-2.8397,-2.8396,-2.8363,-2.834,-2.8361,-2.83,-2.83,-2.828,-2.8215,-2.8231,-2.8184,-2.8144,-2.8117,-2.813,-2.8073,-2.8103,-2.8111,-2.8122,-2.8142,-2.7877,-2.8125,-2.8124,-2.8123,-2.8122,-2.8121,0,-2.8201,-2.8154,-2.8149,-2.813,-2.8126,-2.8105,-2.8077,-2.8088,-2.7967,-2.7973,-2.7976,-2.7969,-2.7956,-2.7954,-2.7931,-2.7895,-2.7808,-2.779,-2.7812,-2.7847,-2.7882,-2.7869,-2.7501,-2.7784,-2.7781,-2.7779,-2.7777,-2.7776,-2.7923,-2.7963,-2.7878,-2.7883,-2.7852,-2.786,-2.7854,-2.7744,-2.7743,-2.7692,-2.7725,-2.772,-2.7711,-2.7726,-2.7653,-2.7644,-2.7601,-2.7716,-2.7599,-2.7631,-2.7608,-2.7609,-2.7615,-2.7743,-2.7747,-2.775,-2.7753,0,-2.7772,-2.768,-2.7724,-2.7635,-2.7614,-2.7663,-2.7587,-2.7612,-2.7548,-2.7575,-2.7575,-2.7475,-2.748,-2.7387,-2.7373,-2.7326,-2.7412,-2.7367,-2.7429,-2.7416,-2.7514,-2.7508,-2.7835,-2.7874,-2.753,-2.7534,-2.7536,0,-2.75,-2.7556,-2.7416,-2.7447,-2.7506,-2.7392,-2.7455,-2.7405,-2.7359,-2.7379,-2.726,-2.7282,-2.7158,-2.7167,-2.7096,-2.7148,-2.7144,-2.7112,-2.7093,-2.7125,-2.713,-2.7126,-2.7112,-2.7042,-2.7041,-2.7039,-2.7038,0,-2.7277,-2.7264,-2.7312,-2.7295,-2.7204,-2.723,-2.7193,-2.7139,-2.7133,-2.711,-2.7106,-2.7088,-2.708,-2.7069,-2.6978,-2.6902,-2.7037,-2.6915,-2.7005,-2.7008,-2.7042,-2.7042,-2.7352,-2.7036,-2.7036,-2.7035,-2.7034,0,-2.7043,-2.7019,-2.7101,-2.7022,-2.7024,-2.7055,-2.7029,-2.7032,-2.6984,-2.694,-2.6921,-2.683,-2.6864,-2.675,-2.6796,-2.6725,-2.6724,-2.6694,-2.6699,-2.6699,-2.6575,-2.6768,-2.7069,-2.7099,-2.6698,-2.6695,-2.6692,0,-2.6815,-2.687,-2.6771,-2.6851,-2.6863,-2.6728,-2.6761,-2.6719,-2.6663,-2.6666,-2.6603,-2.6608,-2.6502,-2.6491,-2.6526,-2.6462,-2.6556,-2.6446,-2.646,-2.6462,-2.6482,-2.6756,-2.6826,-2.7013,-2.6655,-2.6658,-2.6661,0,-2.6627,-2.6511,-2.6532,-2.6508,-2.6432,-2.644,-2.6477,-2.6455,-2.6463,-2.6427,-2.6458,-2.6459,-2.6381,-2.6363,-2.6286,-2.6327,-2.6489,-2.6237,-2.6235,-2.629,-2.6625,-2.6693,-2.6725,-2.6429,-2.6434,-2.6437,-2.6632,0,-2.6303,-2.6316,-2.6366,-2.6313,-2.6303,-2.6345,-2.6241,-2.6246,-2.6173,-2.6111,-2.615,-2.6089,-2.6068,-2.6075,-2.6004,-2.6126,-2.6092,-2.6007,-2.5891,-2.607,-2.6133,-2.6157,-2.5808,-2.5804,-2.58,-2.5798,0,0,-2.6111,-2.6126,-2.6013,-2.6042,-2.6027,-2.5884,-2.5939,-2.5908,-2.585,-2.5844,-2.5778,-2.5773,-2.5726,-2.5785,-2.5833,-2.5822,-2.5836,-2.5776,-2.5985,-2.6006,-2.6026,-2.6094,-2.6121,-2.5792,-2.579,-2.5789,-2.5788,0,-2.597,-2.5921,-2.5975,-2.5937,-2.5877,-2.5806,-2.582,-2.5735,-2.5697,-2.5732,-2.5616,-2.5626,-2.5623,-2.559,-2.5574,-2.5766,-2.5678,-2.5766,-2.5906,-2.5954,-2.598,-2.6002,-2.6075,-2.6102,-2.578,-2.578,-2.578,0,-2.5769,-2.5705,-2.5718,-2.5674,-2.5633,-2.5648,-2.55,-2.552,-2.5531,-2.5373,-2.541,-2.5362,-2.5308,-2.5375,-2.5401,-2.5342,-2.5541,-2.5457,-2.5476,-2.5478,-2.5519,-2.555,-2.5578,-2.5213,-2.5212,-2.521,0,0,-2.5663,-2.5672,-2.5567,-2.5636,-2.5618,-2.5514,-2.551,-2.5435,-2.5388,-2.537,-2.5306,-2.5265,-2.5262,-2.5263,-2.5254,-2.5341,-2.5323,-2.5392,-2.5419,-2.5441,-2.5455,-2.5502,-2.5533,-2.5204,-2.5204,-2.5204,0,0,-2.5612,-2.5493,-2.5426,-2.5492,-2.545,-2.5353,-2.54,-2.5316,-2.5296,-2.528,-2.5156,-2.5139,-2.5199,-2.5156,-2.5091,-2.5211,-2.5098,-2.5111,-2.5237,-2.5269,-2.5296,-2.5306,-2.4932,0,0,0,0,0,-2.5414,-2.5507,-2.5448,-2.5443,-2.5385,-2.5386,-2.5378,-2.5276,-2.5199,-2.5239,-2.5172,-2.5076,-2.5096,-2.5035,-2.5033,-2.5108,-2.5129,-2.5143,-2.5155,-2.5337,-2.5372,-2.5402,0,0,0,0,0,0,-2.5411,-2.5405,-2.5445,-2.5353,-2.5339,-2.5381,-2.5229,-2.5203,-2.5192,-2.5174,-2.5092,-2.5074,-2.4988,-2.5029,-2.5029,-2.5102,-2.4931,-2.5135,-2.5146,-2.5156,-2.5349,-2.5378,-2.5402,0,0,0,0,0,-2.5408,-2.5403,-2.5338,-2.5351,-2.5339,-2.5226,-2.5224,-2.5202,-2.5192,-2.5087,-2.5065,-2.5116,-2.4993,-2.4986,-2.5028,-2.5105,-2.4931,-2.4931,-2.5142,-2.5151,-2.5159,-2.5363,0,0,0,0,0,0,-2.5406,-2.5384,-2.5333,-2.5325,-2.5307,-2.5221,-2.5204,-2.5201,-2.5103,-2.5083,-2.5104,-2.5091,-2.4997,-2.4991,-2.4986,-2.5112,-2.493,-2.4931,-2.4931,-2.5149,-2.5156,-2.5162,0,0,0,0,0,0,-2.5385,-2.5379,-2.5329,-2.5279,-2.5265,-2.5218,-2.5203,-2.5223,-2.5104,-2.5126,-2.5111,-2.5099,-2.5005,-2.4995,-2.4991,-2.5027,-2.493,-2.493,-2.4931,-2.4931,-2.5154,-2.516,0,0,0,0,0,0,-2.5381,-2.5375,-2.528,-2.527,-2.5257,-2.5167,-2.5234,-2.5182,-2.5061,-2.5132,-2.5047,-2.5041,-2.5013,-2.5006,-2.4995,-2.5034,-2.5029,-2.493,-2.493,-2.493,-2.4931,0,0,0,0,0,0,0,-2.5377,-2.5441,-2.5377,-2.5262,-2.5251,-2.5257,-2.5255,-2.5253,-2.506,-2.5054,-2.5049,-2.5044,-2.4929,-2.4929,-2.4929,-2.5039,0,0,-2.493,-2.493,0,0,0,0,0,0,0,0,-2.5441,-2.5441,-2.5376,-2.5375,-2.5373,-2.5257,-2.5255,-2.5254,-2.5059,-2.5054,-2.505,-2.5046,-2.4929,-2.4929,-2.4929,0,0,0,0,0,0,0,0,0,0,0,0,0,0,0,-2.5376,-2.5375,0,-2.5257,-2.5255,-2.5254,-2.5058,-2.5054,-2.5051,-2.5047,-2.4929,-2.4929,-2.4929,0,0,0,0,0,0,0,0,0,0,0,0,0,0,0,0,0,0,0,0,0,0,0,0,0,0,0,0,0,0,0,0,0,0,0,0,0,0,0,0,0,0,0,0,0,0,0,0,0,0,0,0,0,0,0,0,0,0,0,0,0,0,0,0,0,0,0,0,0]}],[{"header":{"parameterUnit":"kt","parameterCategory":2,"dx":1,"dy":1,"la1":30.253999710083008,"la2":30.299108505249023,"lo1":-89.0895004272461,"lo2":-89.04439544677734,"nx":28,"ny":28,"refTime":"2022-09-22T21:00:00:Z","depth":0,"parameterNumber":2,"parameterNumberName":"V-component_of_WINDS"},"data":[-1.4725,-1.4776,-1.4808,-1.488,-1.492,-1.4975,-1.5004,-1.5045,-1.5085,-1.5152,-1.5195,-1.523,-1.5281,-1.534,-1.5387,-1.5402,-1.542,-1.5415,-1.5433,-1.5427,-1.5428,-1.5429,-1.5421,-1.5419,-1.5419,-1.5436,-1.5436,-1.5436,-1.4719,-1.476,-1.4807,-1.4874,-1.4915,-1.4939,-1.4993,-1.5026,-1.5073,-1.5122,-1.5167,-1.5227,-1.5278,-1.5332,-1.5386,-1.5409,-1.5422,-1.5421,-1.542,-1.5428,-1.5422,-1.5413,-1.5409,-1.5409,-1.5409,-1.5409,-1.5409,-1.5409,-1.4716,-1.4745,-1.4805,-1.4856,-1.4898,-1.4943,-1.4975,-1.5019,-1.5065,-1.5126,-1.5154,-1.5207,-1.5261,-1.5341,-1.5374,-1.5416,-1.5423,-1.543,-1.5433,-1.5434,-1.5433,-1.5406,-1.5426,-1.5426,-1.5426,-1.5426,-1.5426,0,-1.4724,-1.4749,-1.4796,-1.4853,-1.4893,-1.4939,-1.4987,-1.5008,-1.5069,-1.5104,-1.5156,-1.5192,-1.526,-1.5312,-1.5369,-1.5403,-1.5431,-1.5436,-1.5442,-1.5431,-1.5413,-1.5424,-1.5415,-1.5435,-1.5436,-1.5436,-1.5436,-1.5436,-1.4725,-1.4754,-1.4831,-1.486,-1.4895,-1.494,-1.4973,-1.5026,-1.5058,-1.5124,-1.5145,-1.5198,-1.5244,-1.5321,-1.537,-1.5421,-1.5434,-1.5439,-1.5442,-1.543,-1.5436,-1.5435,-1.5438,-1.5438,-1.5438,-1.5437,-1.5437,0,-1.4722,-1.4774,-1.483,-1.4903,-1.4923,-1.495,-1.5012,-1.5042,-1.5081,-1.5128,-1.5141,-1.5202,-1.5252,-1.5301,-1.5366,-1.539,-1.5435,-1.5446,-1.5417,-1.5423,-1.5433,-1.5432,-1.5455,-1.5461,-1.5463,-1.5463,-1.5462,0,-1.4744,-1.478,-1.4856,-1.4885,-1.4927,-1.4979,-1.5018,-1.5056,-1.5105,-1.5142,-1.5181,-1.5215,-1.5272,-1.5312,-1.5348,-1.5393,-1.5404,-1.5426,-1.5435,-1.5423,-1.5421,-1.5442,-1.5442,-1.5453,-1.5453,-1.5452,-1.5452,0,-1.4736,-1.4818,-1.4866,-1.4893,-1.4974,-1.4995,-1.503,-1.5084,-1.5116,-1.5164,-1.5186,-1.5237,-1.5266,-1.5305,-1.535,-1.535,-1.5406,-1.5416,-1.5428,-1.5427,-1.5438,-1.5437,-1.5445,-1.5452,-1.5452,-1.5452,-1.5452,0,-1.4761,-1.4812,-1.4873,-1.4942,-1.4961,-1.4992,-1.5048,-1.5086,-1.5141,-1.5166,-1.5204,-1.5236,-1.5279,-1.5286,-1.5346,-1.5334,-1.5359,-1.5383,-1.5385,-1.5393,-1.5399,-1.5399,-1.54,-1.5403,-1.5399,-1.5398,-1.5398,0,-1.4739,-1.4814,-1.4861,-1.4917,-1.4959,-1.5003,-1.5037,-1.5085,-1.5121,-1.5161,-1.5201,-1.5245,-1.5261,-1.5281,-1.5304,-1.5347,-1.5362,-1.5346,-1.5402,-1.5403,-1.5388,-1.539,-1.5379,-1.5394,-1.5393,-1.5393,-1.5394,0,-1.4728,-1.4828,-1.4835,-1.4868,-1.4941,-1.4975,-1.5014,-1.5071,-1.5096,-1.5144,-1.5178,-1.5241,-1.5256,-1.5289,-1.5321,-1.5342,-1.5353,-1.5354,-1.5357,-1.5354,-1.5394,-1.5383,-1.5386,-1.5369,-1.537,-1.5371,-1.539,0,-1.4758,-1.4802,-1.4823,-1.4894,-1.4929,-1.4966,-1.5021,-1.505,-1.5078,-1.5116,-1.5167,-1.5217,-1.5273,-1.5288,-1.5315,-1.5348,-1.5351,-1.5365,-1.5376,-1.5376,-1.5384,-1.5387,-1.536,-1.5361,-1.5361,-1.5362,0,0,-1.4724,-1.4789,-1.4838,-1.488,-1.4912,-1.4958,-1.4993,-1.5029,-1.5101,-1.5122,-1.5129,-1.5224,-1.5265,-1.5321,-1.5325,-1.5346,-1.5358,-1.5355,-1.5375,-1.5376,-1.5378,-1.5385,-1.5387,-1.5363,-1.5363,-1.5363,-1.5363,0,-1.4747,-1.479,-1.4825,-1.4865,-1.4927,-1.4967,-1.4975,-1.5043,-1.5069,-1.5119,-1.5155,-1.5191,-1.5265,-1.5305,-1.5334,-1.535,-1.5374,-1.5362,-1.5354,-1.5378,-1.5379,-1.538,-1.5387,-1.5388,-1.5364,-1.5364,-1.5364,0,-1.4748,-1.4799,-1.4822,-1.4898,-1.4939,-1.498,-1.5005,-1.5047,-1.5078,-1.5124,-1.5173,-1.5207,-1.5263,-1.5309,-1.5331,-1.5337,-1.5387,-1.538,-1.5378,-1.5382,-1.5408,-1.5409,-1.5409,-1.5402,-1.5402,-1.5402,0,0,-1.476,-1.4801,-1.4873,-1.4907,-1.493,-1.4989,-1.5016,-1.5047,-1.5098,-1.5118,-1.5164,-1.5211,-1.5255,-1.5283,-1.5326,-1.5368,-1.5384,-1.5382,-1.5381,-1.5379,-1.5382,-1.5407,-1.5408,-1.5402,-1.5402,-1.5402,0,0,-1.4765,-1.4851,-1.4871,-1.4918,-1.4965,-1.5037,-1.5056,-1.5082,-1.5127,-1.5129,-1.5182,-1.5197,-1.524,-1.5273,-1.5263,-1.5331,-1.5341,-1.5344,-1.5309,-1.5307,-1.5306,-1.5297,-1.5295,0,0,0,0,0,-1.4818,-1.4841,-1.4858,-1.4874,-1.497,-1.5028,-1.504,-1.5086,-1.5093,-1.5106,-1.5149,-1.5173,-1.5279,-1.5271,-1.5285,-1.5296,-1.5398,-1.5399,-1.54,-1.5364,-1.5362,-1.536,0,0,0,0,0,0,-1.4825,-1.4844,-1.4857,-1.493,-1.4952,-1.5028,-1.5049,-1.5062,-1.5092,-1.5096,-1.5164,-1.5175,-1.5214,-1.5267,-1.5279,-1.5288,-1.5291,-1.5399,-1.5399,-1.54,-1.5363,-1.5361,-1.536,0,0,0,0,0,-1.483,-1.4846,-1.4988,-1.493,-1.4949,-1.5015,-1.5048,-1.5059,-1.5084,-1.515,-1.5162,-1.5115,-1.5213,-1.5227,-1.5274,-1.5282,-1.5283,-1.5287,-1.5399,-1.5399,-1.54,-1.5362,0,0,0,0,0,0,-1.4834,-1.4856,-1.4993,-1.5,-1.4925,-1.5012,-1.5027,-1.5057,-1.5136,-1.5148,-1.5103,-1.5105,-1.5213,-1.5223,-1.5233,-1.5277,-1.5276,-1.5281,-1.5283,-1.5399,-1.54,-1.54,0,0,0,0,0,0,-1.4848,-1.4862,-1.4997,-1.4988,-1.4995,-1.5008,-1.5022,-1.5068,-1.5136,-1.5085,-1.5089,-1.5103,-1.5197,-1.5221,-1.5229,-1.53,-1.5271,-1.5275,-1.5278,-1.528,-1.54,-1.54,0,0,0,0,0,0,-1.4855,-1.4867,-1.4986,-1.4992,-1.4998,-1.5085,-1.505,-1.5145,-1.513,-1.5081,-1.513,-1.513,-1.5194,-1.5203,-1.5226,-1.5293,-1.5298,-1.5271,-1.5274,-1.5276,-1.5278,0,0,0,0,0,0,0,-1.486,-1.4768,-1.4949,-1.4995,-1.5,-1.5069,-1.5071,-1.5073,-1.513,-1.513,-1.513,-1.513,-1.5247,-1.5251,-1.5256,-1.5287,0,0,-1.5271,-1.5273,0,0,0,0,0,0,0,0,-1.4764,-1.4767,-1.4949,-1.495,-1.4952,-1.507,-1.5071,-1.5073,-1.513,-1.513,-1.513,-1.513,-1.5248,-1.5252,-1.5255,0,0,0,0,0,0,0,0,0,0,0,0,0,0,0,-1.4949,-1.495,0,-1.507,-1.5071,-1.5073,-1.513,-1.513,-1.513,-1.513,-1.5249,-1.5252,-1.5255,0,0,0,0,0,0,0,0,0,0,0,0,0,0,0,0,0,0,0,0,0,0,0,0,0,0,0,0,0,0,0,0,0,0,0,0,0,0,0,0,0,0,0,0,0,0,0,0,0,0,0,0,0,0,0,0,0,0,0,0,0,0,0,0,0,0,0,0,0]}]]]